Location: �terpigny
(49.8910°N, 2.9249°E)
Time: 05:55:51
(UTC+00:00)

NANOSAT C BR1 - Pass Details

Date: 03 July 2022
Orbit: 584 x 599 km, 98.0° (Epoch: 14 August)

Event Time Altitude Azimuth Distance (km) Brightness Sun altitude
Rises 01:28:29 0° 20° (NNE) 2,852 ? -14.1°
Reaches altitude 10° 01:30:48 10° 29° (NNE) 1,947 ? -13.9°
Maximum altitude 01:34:44 37° 97° (E) 942 ? -13.7°
Enters shadow 01:38:09 13° 163° (SSE) 1,754 ? -13.5°
